Flag for USA

Past Weather in Kalispell, Montana, USA — Yesterday and Last 2 Weeks

Now
60 °F

Light rain. Fog.


Feels Like: 60 °F
Forecast: 67 / 54 °F
Wind: 8 mph from Southeast

Location: Kalispell - Glacier Park International

Current Time: Jul 7, 2020 at 2:05:37 pm

Latest Report: Jul 7, 2020 at 1:08 pm


Visibility: 3 mi

Pressure: 29.88 "Hg (26.85 "Hg at 902m altitude)

Humidity: 86%

Dew Point: 56 °F

Location of KalispellLocation

Past Weather in Kalispell — Graph

°F

Kalispell Temperature Yesterday

Maximum temperature yesterday: 79 °F (at 3:55 pm)
Minimum temperature yesterday: 45 °F (at 5:55 am)
Average temperature yesterday: 63 °F

High & Low Weather Summary for the Past Weeks

 TemperatureHumidityPressure
High83 °F (Jun 23, 5:55 pm)100% (Jun 23, 2:55 am)30.14 "Hg (Jun 23, 2:55 am)
Low41 °F (Jul 3, 1:55 am)22% (Jul 3, 6:55 pm)29.55 "Hg (Jun 27, 7:55 pm)
Average62 °F67%29.87 "Hg
* Reported Jun 22 12:55 pm — Jul 7 12:55 pm, Kalispell. Weather by CustomWeather, © 2020

Note: Actual official high and low records may vary slightly from our data, if they occured in-between our weather recording intervals... More about our weather records

Kalispell Weather History for the Previous 24 Hours

Scroll right to see more
 ConditionsComfort  
Time TempWeatherWind HumidityBarometerVisibility
12:55 pm
Tue, Jul 7
60 °FRain. Overcast.9 mph83%29.86 "Hg2 mi
11:55 am63 °FPartly sunny.5 mph68%29.85 "Hg10 mi
10:55 am59 °FPartly sunny.5 mph81%29.86 "Hg10 mi
9:55 am58 °FScattered clouds.No wind84%29.86 "Hg10 mi
8:55 am56 °FLight rain. Overcast.12 mph90%29.85 "Hg10 mi
7:55 am54 °FSunny.3 mph93%29.83 "Hg10 mi
7:22 am55 °FLight rain. More clouds than sun.6 mph87%29.88 "Hg7 mi
6:55 am55 °FLight rain. Overcast.7 mph90%29.89 "Hg7 mi
6:37 am56 °FThundershowers. Overcast.8 mph84%29.95 "Hg6 mi
5:55 am57 °FLight rain. Mostly cloudy.10 mph74%29.78 "Hg10 mi
5:36 am59 °FLight rain. Overcast.17 mph67%29.81 "Hg9 mi
4:55 am57 °FThundershowers. Passing clouds.6 mph74%29.70 "Hg10 mi
4:28 am58 °FThundershowers. Passing clouds.5 mph70%29.75 "Hg10 mi
4:18 am58 °FPartly cloudy.6 mph72%29.75 "Hg10 mi
3:55 am57 °FThundershowers. Mostly cloudy.No wind74%29.72 "Hg10 mi
3:42 am57 °FThunderstorms. Mostly cloudy.N/A74%29.79 "Hg10 mi
3:33 am58 °FThundershowers. Partly cloudy.9 mph70%29.76 "Hg10 mi
2:55 am54 °FPassing clouds.No wind86%29.73 "Hg10 mi
1:55 am55 °FClear.No wind80%29.75 "Hg10 mi
12:55 am55 °FClear.5 mph80%29.79 "Hg10 mi
11:55 pm
Mon, Jul 6
55 °FClear.No wind83%29.81 "Hg10 mi
10:55 pm58 °FClear.5 mph81%29.81 "Hg10 mi
9:55 pm63 °FClear.No wind73%29.81 "Hg10 mi
8:55 pm71 °FSunny.No wind59%29.81 "Hg10 mi
7:55 pm77 °FSunny.5 mph39%29.82 "Hg10 mi
6:55 pm79 °FSunny.7 mph34%29.84 "Hg10 mi
5:55 pm79 °FSunny.6 mph31%29.87 "Hg10 mi
4:55 pm79 °FSunny.9 mph31%29.88 "Hg10 mi
3:55 pm79 °FSunny.9 mph30%29.90 "Hg10 mi
2:55 pm78 °FSunny.9 mph31%29.92 "Hg10 mi
Weather by CustomWeather, © 2020

See weather overview